STARLINK-34572, 64720

Orbit data source: Space-Track

STARLINK-34572, 64720 is a payload satellite owned by SpaceX/Seattle (US) in LEO that was launched on Sat, 28 Jun 2025 UTC via an FALCON 9 launch vehicle from the Air Force Western Test Range (AFWTR). Payload-class satellites include a variety of spacecraft equipped with specific instruments for various scientific and technological missions. These include communications satellites like Starlink; space stations such as the ISS; scientific satellites like the Hubble; Earth observation satellites from companies like Planet Labs, Umbra, and HawkEye 360; GPS; miniature CubeSats for education and research; and military/defense satellites.

Loading next visibility...
Identifier
64720, 2025-142AA
Orbit
LEO
Last TLE update
12 hours ago
Origin
Manufacturer
SpaceX/Seattle
Mission
Operational spacecraft
Bus & Motor
STARLINK V2MO, Unknown motor
Mass
575 kg wet, ~530 kg dry
Launch date (UTC)
2025-06-28 (3 weeks ago)
Launch vehicle
FALCON 9
Launch site
Air Force Western Test Range (AFWTR)
Object type
Payload
Rocket body
Debris
Shape & HBR
Unknown
Radar Cross Section
Large (>1 m²)

Expand to show TLE details & history

TLE from 12 hours ago
0 STARLINK-34572
1 64720U 25142AA  25199.25002315 -.01874875  00000-0 -31521-1 0  9992
2 64720  70.0003 195.5322 0003774 282.3220 128.3664 15.54955389  4275
Epoch: 2025-07-18T06:00Z
TLE epoch observation values (Epoch: 2025-07-18T06:00:02Z)
Latitude
46.78451°
Longitude
-168.12337°
Altitude
410.524 km
Speed
7.669 km/s
True Right ascension
14h 32m 45s
True Declination
46° 36' 15"
Sunlit
Object was in daylight at epoch
Visualization orbit readout
Latitude
-59.36454°
Longitude
25.55987°
Altitude
428.482 km
Speed
7.654 km/s
Apparent Right ascension
21h 26m 41s
Apparent Declination
-70° 51' 02"
Sunlit
Object is in daylight
Visualization observer readout
Local Sidereal Time
06:25:51
Azimuth
201.998° SSW
Elevation
-51.574°
Doppler factor
1
Orbital elements
Apogee altitude
402.737 km
Perigee altitude
397.621 km
Semi-major axis
6,778.316 km
Eccentricity
0.00038
Inclination
70.0003°
RAAN
195.5322°
Arg. of periapsis
282.322°
True anomaly
128.4003°
Mean anomaly
128.3664°
Eccentric anomaly
128.38335°
Mean motion
3.8892 °/min
Orbital period
92.56 mins
BSTAR
-0.031521
Loading maneuver chart data...
Loading SW <> Apogee altitude chart data...
Loading historical data...
Loading historical data...
Loading historical data...
Loading historical data...
Loading historical data...
Loading historical data...
Loading historical data...
|